Tracking 30298 objects as of 27-Apr-2025
HD Live streaming from Space Station
objects crossing your sky now

APRIZESAT 5

Track APRIZESAT 5 now!
10-day predictions
APRIZESAT 5 is classified as:


NORAD ID: 37792
Int'l Code: 2011-044E
Perigee: 600.5 km
Apogee: 673.4 km
Inclination: 98.2 °
Period: 97.3 minutes
Semi major axis: 7007 km
RCS: 0.107 m2 (medium)
Launch date: August 17, 2011
Source: United States (US)
Launch site: Orenburg, Russia (OREN)

Uplink (MHz):
Downlink (MHz):
Beacon (MHz):
Mode:
Call sign:
Status: Unknown

Your satellite tracking list
Your tracking list is empty




NASA's NSSDC Master Catalog

Two Line Element Set (TLE):
1 37792U 11044E   25117.48099862  .00002301  00000-0  30605-3 0  9993
2 37792  98.2328  34.7001 0051987 260.4267  99.1068 14.79851620737287
Source of the keplerian elements: AFSPC